Regional Weather Roundup
Issued by NWS

Home | Current Version | Previous Version | Text Only | Print | Product List | Glossary On
Versions: 1 2 3 4 5 6 7 8 9 10 11 12 13 14 15 16 17 18 19 20 21 22 23 24 25 26 27 28 29 30 31 32 33 34 35 36 37 38 39 40 41 42 43 44 45 46 47 48 49 50
000
ASUS43 KDTX 250910
RWRMI
MICHIGAN HOURLY REGIONAL WEATHER ROUNDUP
NATIONAL WEATHER SERVICE DETROIT/PONTIAC MI
500 AM EDT FRI JUL 25 2014

NOTE: "FAIR" INDICATES FEW OR NO CLOUDS BELOW 12,000 FEET WITH NO
SIGNIFICANT WEATHER AND/OR OBSTRUCTION TO VISIBILITY.

MIZ047>049-052>055-059>063-066>070-074>076-081>083-251000-
SOUTHEAST LOWER MICHIGAN

CITY           SKY/WX    TMP DP  RH WIND       PRES   REMARKS
ADRIAN         CLEAR     52  49  89 CALM      30.09R
ALMA           PTCLDY    50  49  95 CALM      30.06S
ANN ARBOR      PTCLDY    46  43  89 CALM      30.08R
BAD AXE        CLEAR     50  46  85 S3        30.06R
CARO           CLEAR     51  51  99 CALM      30.05S
DETROIT CITY   CLEAR     60  48  64 CALM      30.07R
DETROIT        MOCLDY    57  52  83 S3        30.08R
FLINT          CLEAR     53  48  83 CALM      30.07R
GROSSE ILE     PTCLDY    61  54  77 W3        30.06R
HILLSDALE      FOG       49  49 100 CALM      30.09R VSB 1/2
HOWELL         PTCLDY    50  48  93 CALM      30.07S

CITY           SKY/WX    TMP DP  RH WIND       PRES   REMARKS
JACKSON        CLEAR     51  50  96 SW3       30.08R
LAMBERTVILLE   PTCLDY    52  50  93 CALM      30.09R
LANSING        PTCLDY    54  51  90 CALM      30.08R
LAPEER         FAIR      49  47  95 CALM      30.07R
MASON          PTCLDY    51  49  95 CALM      30.08R
MONROE         PTCLDY    54  52  94 CALM      30.07R
MT. CLEMENS    CLEAR     54  49  83 W2        30.05R
PONTIAC        CLEAR     53  48  83 CALM      30.06R
PORT HOPE        N/A     57  46  66 SW7       30.03R
PORT HURON     CLEAR     45  45 100 CALM      30.06R FOG
TRI CITIES     CLEAR     56  51  84 SW7       30.06R
TROY           PTCLDY    58  50  73 CALM      30.08R
SAGINAW HB     PTCLDY    54  52  94 SW3       30.05R
$$
MIZ043>046-050>051-056>058-064>065-071>073-077>080-251000-
SOUTHWEST LOWER MICHIGAN

CITY           SKY/WX    TMP DP  RH WIND       PRES   REMARKS
BATTLE CREEK   CLEAR     54  50  86 CALM      30.08R
BENTON HARBOR  CLEAR     48  47  96 CALM      30.06F
BIG RAPIDS     PTCLDY    50  50  99 CALM      30.05S
COLDWATER      CLEAR     54  52  95 CALM      30.08S
FREMONT        FAIR      52  51  96 CALM      30.05S
HOLLAND        PTCLDY    51  48  89 CALM      30.06F
GRAND RAPIDS   CLEAR     55  51  86 SW3       30.07R
IONIA          FAIR      51  49  92 CALM      30.06S
KALAMAZOO      CLEAR     53  49  86 CALM      30.08R
LUDINGTON      MOCLDY    59  52  77 S5        30.03S
MARSHALL       PTCLDY    48  47  96 CALM      30.08R FOG
MOUNT PLEASANT PTCLDY    52  50  95 CALM      30.04F
MUSKEGON       MOCLDY    55  50  83 SE3       30.04F
SOUTH HAVEN    PTCLDY    49  49 100 CALM      30.06F
$$
MIZ016>042-251000-
NORTHERN LOWER MICHIGAN

CITY           SKY/WX    TMP DP  RH WIND       PRES   REMARKS
ALPENA         CLEAR     48  46  93 SW3       30.02R
BEAVER ISLAND  PTCLDY    59  52  78 SW8       29.99S
BELLAIRE       CLEAR     46  44  95 CALM      30.01F
CADILLAC       PTCLDY    45  44  98 CALM      30.04F
CHARLEVOIX     PTCLDY    52  51  96 SE5       30.03F
FRANKFORT      PTCLDY    54  49  86 CALM      30.00F
GAYLORD        CLEAR     45  43  93 CALM      30.03S
GRAYLING         N/A     41  41 100 CALM      30.04S FOG
HARBOR SPRINGS CLEAR     51  49  90 CALM      30.00F
HOUGHTON LAKE  CLEAR     44  43  96 CALM      30.05R FOG
MANISTEE       PTCLDY    48  45  87 E6        30.02F
OSCODA         CLEAR     50  48  90 CALM      30.02R
PELLSTON       CLEAR     43  42  97 CALM      30.00F
ROGERS CITY    CLEAR     52  49  89 CALM      30.02F
TRAVERSE CITY  PTCLDY    53  46  77 S3        30.00F
$$
MIZ007>008-015-251000-
EASTERN UPPER MICHIGAN

CITY           SKY/WX    TMP DP  RH WIND       PRES   REMARKS
KINROSS        PTCLDY    54  52  94 S5        29.98F
MACKINAC ISLAN CLEAR     58  54  87 SW8       29.98F
NEWBERRY       MOCLDY    56  47  74 SW14      29.96F
S. S. MARIE    PTCLDY    50  46  86 SE3       29.97F
MUNISING         N/A     61  48  62 SW12      29.93F
$$
MIZ004>006-011>014-085-251000-
CENTRAL UPPER MICHIGAN

CITY           SKY/WX    TMP DP  RH WIND       PRES   REMARKS
MANISTIQUE     CLOUDY    57  54  89 SW6       29.96F
ESCANABA       MOCLDY    55  46  71 W5        29.95F
MENOMINEE      CLOUDY    63  48  59 SW7       29.95F
SAWYER-GWINN   MOCLDY    55  51  87 S3        29.95F
$$
MIZ001>003-009>011-084-251000-
WESTERN UPPER MICHIGAN

CITY           SKY/WX    TMP DP  RH WIND       PRES   REMARKS
IRON MOUNTAIN  CLOUDY    60  54  80 SE5       29.94F
HOUGHTON       PTCLDY    53  49  86 CALM      29.90F
COPPER HARBOR    N/A     63  50  62 SW6       29.88F
$$

ABBREVIATIONS USED IN REMARKS
   TC - TEMPERATURE IN CELSIUS
  WCI - WIND CHILL INDEX
   HX - HEAT INDEX
  VSB - VISIBILITY




USA.gov is the U.S. government's official web portal to all federal, state and local government web resources and services.